Regional Weather Roundup
Issued by NWS Wakefield, VA

Home | Current Version | Previous Version | Text Only | Print | Product List | Glossary On
Versions: 1 2 3 4 5 6 7 8 9 10 11 12 13 14 15 16 17 18 19 20 21 22 23 24 25 26 27 28 29 30 31 32 33 34 35 36 37 38 39 40 41 42 43 44 45 46 47 48 49 50
000
ASUS41 KAKQ 302110
RWRAKQ

REGIONAL WEATHER ROUNDUP
NATIONAL WEATHER SERVICE WAKEFIELD VA
500 PM EDT SAT AUG 30 2014

Note: "fair" indicates few or no clouds below 12,000 feet with no
significant weather and/or obstructions to visibility. * = Denotes
station may not report precipitation (e.g., rain,snow,etc.),
thunder or fog.

VAZ042-051-052>054-056-302200-
NORTHERN VIRGINIA

CITY           SKY/WX    TMP DP  RH WIND       PRES   REMARKS
WASH NATIONAL  CLOUDY    85  69  58 S8        30.14F
DULLES         PTSUNNY   79  70  74 S7        30.14F
FORT BELVOIR   MOSUNNY   83  71  66 SE3       30.14F
QUANTICO       CLOUDY    82  72  71 SE7       30.13F
FREDERICKSBRG* MOSUNNY   87  71  59 S6        30.12F
STAFFORD*      PTSUNNY   83  71  67 S3        30.17F
WARRENTON      CLOUDY    83  76  78 S8        30.13F
CULPEPER*      MOSUNNY  N/A N/A N/A S5        30.14S
MANASSAS*      CLOUDY    82  73  74 SE8       30.13F
LEESBURG*      CLOUDY    82  73  74 S8        30.14F
WINCHESTER     SUNNY     82  70  65 SE13G18   30.11F
$$

VAZ048-049-060>072-079>083-302200-
CENTRAL AND SOUTH CENTRAL VIRGINIA...AND NORTH CENTRAL NORTH CAROLINA

CITY           SKY/WX    TMP DP  RH WIND       PRES   REMARKS
RICHMOND       PTSUNNY   89  71  55 S7        30.13F HX  95
CHESTERFIELD*  PTCLDY    88  66  48 S7        30.15F
PETERSBURG*    MOSUNNY   87  70  57 SW6       30.14F
HANOVER        PTSUNNY   87  70  56 VRB6      30.14F
TAPPAHANNOCK*  PTSUNNY   86  67  53 SE5       30.15F
CHARLOTTSVILLE MOSUNNY   82  71  69 S8        30.14F
ORANGE*        PTSUNNY   82  70  65 E6        30.15F
LOUISA*        MOSUNNY   82  72  69 S3        30.13F
FARMVILLE*     MOSUNNY   88  70  55 S7        30.11F
SOUTH HILL*    MOSUNNY   88  73  62 SE6       30.20S HX  96
ROANOKE RAPIDS PTCLDY    86  70  58 S6        30.14S
RALEIGH        MOSUNNY   88  70  55 SE7       30.14F
$$

VAZ088>098-302200-
SOUTHEAST VIRGINIA

CITY           SKY/WX    TMP DP  RH WIND       PRES   REMARKS
NORFOLK        MOSUNNY   84  72  67 SE9       30.15F
VIRGINIA BEACH MOSUNNY   82  73  74 E14       30.15F
NORFOLK NAVAL  PTSUNNY   86  72  62 SE8       30.15F
WEST POINT*    SUNNY     88  70  56 SE6       30.16S
NEWPORT NEWS   PTSUNNY   89  73  59 SE8       30.14F HX  97
LANGLEY AFB    SUNNY     84  74  71 SE8       30.14F
FORT EUSTIS    SUNNY     86  69  56 S8        30.13F
WILLIAMSBURG*  SUNNY     91  73  55 SE6       30.15S HX 100
FRANKLIN*      MOSUNNY   88  70  55 SE5       30.14S
WAKEFIELD      MOSUNNY   87  71  58 CALM      30.14F
$$

VAZ020-022-025-037-045-302200-
WESTERN AND SOUTHWEST VIRGINIA

CITY           SKY/WX    TMP DP  RH WIND       PRES   REMARKS
STAUNTON*      SUNNY     85  68  56 S12G17    30.14F
HOT SPRINGS VA CLOUDY    70  67  88 S8        30.30S
LYNCHBURG      MOSUNNY   84  71  65 S10       30.16F
DANVILLE       MOSUNNY   88  71  57 S7        30.13F
MARTINSVILLE   MOSUNNY   89  69  52 S3        30.16F
ROANOKE        MOSUNNY   86  67  52 S15       30.15F
BLACKSBURG     SUNNY     84  68  58 SW8       30.20F
DUBLIN*        SUNNY     85  65  50 S9        30.20S
MARION*        CLOUDY   N/A N/A N/A CALM      30.22F
HILLSVILLE*    SUNNY     79  65  61 S9        30.23F
RICHLANDS*     MOCLDY    87  62  43 S3        30.19F
WISE*          PTSUNNY   82  61  47 S7        30.19F
ABINGDON*      MOSUNNY   88  60  38 S3        30.16S
$$

MDZ021>025-VAZ099-100-302200-
SOUTHERN MARYLAND AND THE DELMARVA PENINSULA

CITY           SKY/WX    TMP DP  RH WIND       PRES   REMARKS
PATUXENT RIVER MOSUNNY   81  67  62 SE10      30.15F
BAY BRIDGE APT   N/A     81  63  54 S8        30.15F
LEONARDTOWN    MOSUNNY   82  66  57 SE7       30.16F
DOVER          PTSUNNY   77  69  76 E10       30.16S
GEORGETOWN     CLOUDY    82  65  56 S16       30.17F
EASTON         MOSUNNY   86  68  54 S9        30.19F
CAMBRIDGE      PTSUNNY   81  64  57 S8        30.16S
SALISBURY      MOSUNNY   84  66  54 S10       30.17S
OCEAN CITY     SUNNY     78  66  66 SE8       30.19F
WALLOPS ISLAND SUNNY     81  66  60 S12       30.19F
ACCOMACK*      NOT AVBL
$$

NCZ012>017-030>032-302200-
EASTERN NORTH CAROLINA

CITY           SKY/WX    TMP DP  RH WIND       PRES   REMARKS
ELIZABETH CITY SUNNY     84  73  69 SE13      30.16S
AHOSKIE*       SUNNY     85  72  64 CALM      30.14F
EDENTON*       MOSUNNY   85  74  68 SE12      30.15S
CURRITUCK*     SUNNY     84  71  64 E5        30.16F
KILL DEVIL HLS SUNNY     83  74  73 SE7       30.16S
MANTEO         PTSUNNY   84  74  71 S10       30.17S
CAPE HATTERAS  NOT AVBL
GOLDSBORO      MOSUNNY   83  76  80 SE8       30.13R
WASHINGTON     SUNNY     88  71  56 S6        30.14F
GREENVILLE     MOSUNNY   88  72  58 CALM      30.15S
NEW BERN       SUNNY     87  72  60 S3        30.16S
WILMINGTON     SUNNY     85  70  60 SE10      30.15F
$$

VAZ048-302200-
ELSEWHERE

CITY           SKY/WX    TMP DP  RH WIND       PRES   REMARKS
HARRISBURG PA  CLOUDY    79  67  66 SE5       30.13F
BALTIMORE      MOSUNNY   81  66  60 SE7       30.14F
ANNAPOLIS      MOSUNNY   79  67  66 S9        30.15F
ANDREWS AFB    PTSUNNY   81  70  71 SE8       30.15S
WILMINGTON DE  PTSUNNY   78  66  66 S12       30.17F
PHILADELPHIA   PTSUNNY   79  61  53 S9        30.17F
WILDWOOD NJ*   MOSUNNY   79  61  53 SE12      30.20S
ATLANTIC CITY  PTSUNNY   76  60  57 S8        30.19F
HENDERSON NC   SUNNY     86  69  56 SE5       30.15F
GREENSBORO     MOSUNNY   87  65  47 SW6       30.13F
ROCKY MOUNT    MOSUNNY   89  72  56 SE5       30.14F HX  96
FAYETTEVILLE   SUNNY     90  69  50 E13       30.12F
CHARLOTTE      PTSUNNY   90  64  42 VRB5      30.12F
$$

VAZ100-302200-
MARINE

STATION/POSITION TIME  TEMP    WIND        PRES    WAVE   SWELL
                       AIR SEA DIR/SP/G            HT/PER HT/PER
                 (UTC) (F)     (DEG/KT/KT) (MB)    (FT/S) (FT/S)
44066 TX TWR #4  2100   74 74  180/  6/  8 1023.1F   2/ 8   2/ 8
CAPE MAY NJ      2100   75 79  130/ 11/ 13 1021.6F
LEWES DE         2100   77 76  150/  6/ 12 1021.6F
15NM E FENWICK I 2100   75 74              1022.3F   2/ 8
OCEAN-CITY-INLET 2100   77 76  180/  6/  8 1021.9F
WACHAPREAGUE VA  2100   79 82  160/  8/ 12 1021.8F
THOMAS POINT MD  2100   78 78  180/ 13/ 14 1021.7F
GOOSES REEF MD   2100   78     170/ 16/ 19 1021.3F
COVE POINT MD    2100   78     180/ 16/ 17 1021.0F
SOLOMONS ISLAND  2100      79                N/A
BISHOPS HEAD MD  2100   79 78  160/ 11/ 12 1021.0F
PINEY POINT MD   2100          160/ 15/ 16   N/A
POTOMAC MD       2100   79     160/ 14/ 16 1020.5F
CAMBRIDGE MD     2100   82 78  180/  7/ 12 1021.0F
LEWISETTA VA     2100   80 79  150/ 11/ 13 1020.6S
RAPPAHANNOCK LGT 2100          140/ 12/ 13 1021.9F
STINGRAY PT      2100   79     160/ 12/ 14   N/A
YORK RVR RNG VA  2100   78     140/ 18/ 20 1020.4F
YORKTOWN VA      2100   81 80  110/ 10/ 12 1020.6F
JAMESTOWN VA     2100   82     150/  8/ 12   N/A
DOMINION TERM VA 2100   82     110/  6/  7 1021.0F
KIPTOPEKE VA     2100      81  150/ 12/ 16   N/A
CHES BAY BRIDGE  2100   80 77  110/ 10/ 14 1020.7F
CAPE HENRY VA    2100   78     130/ 12/ 16 1020.3S
CHESAPEAKE LGHT  2000   76     130/ 13/ 14 1022.5F
WILLOUBY STN VA  2100   81     120/ 10/ 12 1019.6F
S CRANEY ISL VA  2100           90/  8/ 11 1020.4F
CAPE HENRY BUOY  2100      77                N/A     3/ 8
1ST LANDING BUOY 2100   78     130/ 14/ 16 1021.1F
CAPE CHARLES BUO 2100      77                N/A     3/ 8   2/ 8
OFFSHORE WE BUOY 2100      76                N/A     3/ 8   2/ 8
64NM E OF VA BCH 2100   78 78  110/  8/ 10 1021.8F   3/ 7   2/ 7
DUCK PIER NC     2100   80 79  120/ 13/ 14 1020.6F
44056 DUCK FRF   2100                        N/A     3/ 7
OREGON INLET NC  2100   81 78  130/  8/ 12 1021.6R
HATTERAS NC      2100   84 82  170/  4/  7 1022.1S
DIAMOND SHLS NC  2100   80     160/  8/ 10 1021.6F   3/ 8   3/ 8
CAPE LOOKOUT NC  2000   81     170/  6/  7 1021.4F
$$


USA.gov is the U.S. government's official web portal to all federal, state and local government web resources and services.